Main page
METAR-TAF:

METAR-TAF

Airports :

Berbérati Airport

Berbérati, Central African Republic

latitude: 04-15N, longitude: 015-48E, elevation: 582 m

Current weather observation

The report was made 13 hours and 53 minutes ago, at 10:00 UTC
Wind 6 kt from the West/Southwest
Temperature 27°C
Humidity 74%
Pressure 1015 hPa
Visibility 10 km or more
Broken clouds at a height of 2400 ft

METAR: FEFT 091000Z 24006KT 9999 BKN024 27/22 Q1015

Time: 00:53 (23:53 UTC)


TAF: missing

Weather observations and forecasts of more than 4000 airports (METAR and TAF reports).

The available stations are represented by yellow and red dots on the map.

Hover mouse over dot to see the name of the station.

Then click to see weather observations and forecasts.

To change the map : click on the green buttons with a black cross to zoom in, on the green button with a dash to zoom out, or on the green arrows for adjacent maps.


METAR-TAF: